Weather History for Fort Eustis, VA

Change the Weather History Date:

Monday, July 16, 2012

  Actual Average Record
Temperature  
Mean Temperature 84 °F -  
Max Temperature 92 °F 86 °F 98 °F (1997)
Min Temperature 76 °F 70 °F 62 °F (2001)
Cooling Degree Days 19    
Growing Degree Days 34 (Base 50)    
Moisture  
Dew Point 73 °F    
Average Humidity 72    
Maximum Humidity 86    
Minimum Humidity 48    
Precipitation  
Precipitation 0.00 in - - ()
Sea Level Pressure  
Sea Level Pressure 29.95 in    
Wind  
Wind Speed 5 mph (WSW)    
Max Wind Speed 8 mph    
Max Gust Speed -    
Visibility 10 miles    
Events      
Averages and records for this station are not official NWS values.
T = Trace of Precipitation, MM = Missing Value Source: NWS Daily Summary

Daily Weather History Graph

Daily Weather History Graph

Search for Another Location

Airport:

Trip Planner

Search our weather history database for the weather conditions in past years. The results will help you decide how hot, cold, wet, or windy it might be!

Date:

Astronomy

Jul. 16, 2012 Rise Set
Actual Time 5:59 AM EDT 8:25 PM EDT
Civil Twilight 5:29 AM EDT 8:55 PM EDT
Nautical Twilight 4:52 AM EDT 9:32 PM EDT
Astronomical Twilight 4:11 AM EDT 10:13 PM EDT
Moon 3:41 AM EDT (7/16) 6:29 PM EDT (7/16)
Length of Visible Light 15h 26m
Length of Day
14h 26m
Waning Crescent, 6% of the Moon is Illuminated
Jul 16
Waning Crescent
Jul 19
New
Jul 26
First Quarter
Aug 1
Full
Aug 9
Last Quarter

Hourly Weather History & Observations

Time (EDT) Temp. Heat Index Dew Point Humidity Pressure Visibility Wind Dir Wind Speed Gust Speed Precip Events Conditions
12:55 AM 80.6 °F 85.4 °F 73.4 °F 79% 30.04 in 10.0 mi Variable 6.9 mph - N/A   Partly Cloudy
1:55 AM 79.7 °F - 73.2 °F 80% 30.03 in 10.0 mi SW 6.9 mph - N/A   Partly Cloudy
2:55 AM 79.0 °F - 73.2 °F 82% 30.01 in 10.0 mi SW 8.1 mph - N/A   Clear
3:55 AM 78.3 °F - 72.9 °F 83% 29.99 in 10.0 mi Variable 6.9 mph - N/A   Clear
4:55 AM 77.4 °F - 72.7 °F 85% 29.98 in 10.0 mi SW 8.1 mph - N/A   Clear
5:55 AM 76.8 °F - 72.5 °F 86% 29.99 in 10.0 mi Calm Calm - N/A   Clear
6:55 AM 77.0 °F - 72.7 °F 86% 30.01 in 10.0 mi WSW 4.6 mph - N/A   Scattered Clouds
7:55 AM 77.4 °F - 72.7 °F 85% 30.01 in 10.0 mi West 3.5 mph - N/A   Scattered Clouds
8:55 AM 79.7 °F - 73.6 °F 81% 30.01 in 10.0 mi Variable 4.6 mph - N/A   Partly Cloudy
9:55 AM 82.2 °F 88.3 °F 74.1 °F 76% 30.00 in 10.0 mi WNW 5.8 mph - N/A   Clear
10:55 AM 83.7 °F 91.0 °F 74.5 °F 74% 29.99 in 10.0 mi WNW 8.1 mph - N/A   Partly Cloudy
11:55 AM 85.3 °F 92.2 °F 73.2 °F 67% 29.98 in 10.0 mi NW 5.8 mph - N/A   Clear
12:55 PM 87.6 °F 96.2 °F 74.1 °F 64% 29.96 in 10.0 mi Variable 4.6 mph - N/A   Clear
1:55 PM 89.8 °F 97.0 °F 72.3 °F 56% 29.94 in 10.0 mi Variable 4.6 mph - N/A   Clear
2:55 PM 90.3 °F 97.7 °F 72.3 °F 55% 29.92 in 10.0 mi Variable 4.6 mph - N/A   Clear
3:55 PM 91.8 °F 99.7 °F 72.7 °F 53% 29.90 in 10.0 mi Variable 5.8 mph - N/A   Clear
4:55 PM 92.3 °F 98.1 °F 70.0 °F 48% 29.88 in 10.0 mi North 4.6 mph - N/A   Clear
5:55 PM 91.8 °F 97.5 °F 70.2 °F 49% 29.87 in 10.0 mi Variable 3.5 mph - N/A   Clear
6:55 PM 90.9 °F 97.3 °F 71.2 °F 52% 29.87 in 10.0 mi Calm Calm - N/A   Partly Cloudy
7:55 PM 86.9 °F 95.4 °F 74.5 °F 66% 29.88 in 10.0 mi South 3.5 mph - N/A   Clear
8:55 PM 85.6 °F 94.6 °F 75.4 °F 71% 29.89 in 10.0 mi SSW 3.5 mph - N/A   Clear
9:17 PM 84.2 °F 92.3 °F 75.2 °F 74% 29.89 in 10.0 mi South 3.5 mph - N/A   Light Drizzle
9:30 PM 84.2 °F 94.1 °F 77.0 °F 79% 29.90 in 10.0 mi Calm Calm - N/A   Clear
9:55 PM 85.3 °F 94.2 °F 75.2 °F 72% 29.90 in 10.0 mi Variable 3.5 mph - 0.00 in   Clear
10:55 PM 83.8 °F 92.1 °F 75.4 °F 76% 29.92 in 10.0 mi SW 4.6 mph - N/A   Clear
11:55 PM 81.9 °F 88.9 °F 75.9 °F 82% 29.91 in 10.0 mi SSW 6.9 mph - N/A   Clear